カタログに戻る

STARLINK-36805

運用中通信SSO
NORAD 68116·PAYLOAD·🇺🇸 United States

打ち上げ Mar 8, 2026 から Vandenberg Space Force Base

Loading…

次のパス (今後24時間)

TLE

最新Source: CelesTrak SupGP

元期: Sep 15, 2026, 03:00 UTC

1 68116C 26044R   26258.12548611  .00004723  00000+0  14665-3 0  2587
2 68116  97.2854 217.1680 0001615  91.8299 323.4134 15.33427931    14

AllMySatでSTARLINK-36805をリアルタイム追跡

Download on the App Store